Regional Weather Roundup
Issued by NWS

Home | Current Version | Previous Version | Graphics & Text | Print | Product List | Glossary On
Versions: 1 2 3 4 5 6 7 8 9 10 11 12 13 14 15 16 17 18 19 20 21 22 23 24 25 26 27 28 29 30 31 32 33 34 35 36 37 38 39 40 41 42 43 44 45 46 47 48 49 50
000
ASUS43 KOAX 021010
RWRNE

WEATHER ROUNDUP FOR NEBRASKA
NATIONAL WEATHER SERVICE OMAHA NE
400 AM CST MON MAR 02 2015

NOTES: SATELLITE DATA IS BEING USED TO AUGMENT CLOUD COVER ABOVE
       12000 FEET.
       "FAIR" INDICATES FEW OR NO CLOUDS BELOW 12,000 FEET WITH NO
       SIGNIFICANT WEATHER AND/OR OBSTRUCTIONS TO VISIBILITY.

  * THESE STATIONS DO NOT REPORT WEATHER SUCH AS RAIN...SNOW OR FOG.

NEZ001>004-019>022-054>056-021100-
NEBRASKA PANHANDLE

CITY           SKY/WX    TMP DP  RH WIND       PRES   REMARKS
SCOTTSBLUFF    MOCLDY    27  17  66 E7        30.12F WCI  19
ALLIANCE       MOCLDY    21  13  71 SE9       30.14F WCI  11
CHADRON        MOCLDY    24  14  65 SE13      30.12F WCI  12
KIMBALL        CLOUDY    25  21  84 S14       30.08F WCI  13
SIDNEY         CLOUDY    26  18  71 S13       30.15F WCI  15
$$

NEZ057>060-069>072-079>082-021100-
SOUTHWEST NEBRASKA

CITY           SKY/WX    TMP DP  RH WIND       PRES   REMARKS
NORTH PLATTE   PTCLDY    24  12  60 E9        30.28F WCI  14
IMPERIAL         N/A     28  18  66 S8        30.24F WCI  20
LEXINGTON      CLOUDY    29  15  55 SE8       30.33F WCI  21
MCCOOK         CLOUDY    32  20  61 S7        30.30F WCI  26
OGALLALA       MOCLDY    25  17  70 CALM      30.22F
$$

NEZ005>010-023>029-035>040-094-021100-
NORTH CENTRAL NEBRASKA

CITY           SKY/WX    TMP DP  RH WIND       PRES   REMARKS
VALENTINE      CLEAR     15   9  76 S6        30.29F WCI   6
AINSWORTH      PTCLDY    18  10  70 SE8       30.31F WCI   8
BROKEN BOW     MOCLDY    22  12  65 SE6       30.32F WCI  14
O`NEILL        PTCLDY    19  10  69 SE6       30.39S WCI  11
ORD            MOCLDY    16  10  77 CALM      30.37F
THEDFORD       MOCLDY    23  11  61 SE6       30.29F WCI  15
$$

NEZ041-046>049-061>064-073>077-083>087-021100-
SOUTH CENTRAL NEBRASKA

CITY           SKY/WX    TMP DP  RH WIND       PRES   REMARKS
GRAND ISLAND   MOCLDY    27  12  53 SE7       30.41F WCI  19
AURORA         MOCLDY    24  13  62 E7        30.40F WCI  16
HASTINGS       CLOUDY    30  13  49 E6        30.37F WCI  24
HEBRON         MOCLDY    27  22  84 CALM      30.41F
HOLDREGE       CLOUDY    28  15  57 SE6       30.34F WCI  22
KEARNEY *      CLOUDY    28  12  50 E9        30.37F WCI  20
YORK           MOCLDY    27  14  59 SE7       30.43S WCI  19
$$

NEZ011>018-030>034-042>045-021100-
NORTHEAST NEBRASKA

CITY           SKY/WX    TMP DP  RH WIND       PRES   REMARKS
NORFOLK        PTCLDY    15  10  80 CALM      30.42F
ALBION         MOCLDY    15   9  77 CALM      30.41F
BLAIR          PTCLDY    24  15  69 E6        30.45S WCI  17
COLUMBUS *     MOCLDY    19   7  58 E3        30.46S
FREMONT        PTCLDY    20  15  79 CALM      30.46S
TEKAMAH        PTCLDY    17  12  80 N3        30.49F
WAYNE          PTCLDY     7   3  84 CALM      30.45F
$$

NEZ050>053-065>068-078-088>093-021100-
SOUTHEAST NEBRASKA

CITY           SKY/WX    TMP DP  RH WIND       PRES   REMARKS
LINCOLN        MOCLDY    26  16  65 CALM      30.47F
OMAHA EPPLEY   CLOUDY    23  16  74 CALM      30.48F
BEATRICE       MOCLDY    25  19  78 CALM      30.44F
FALLS CITY     MOCLDY    26  21  81 CALM      30.46F
NEBRASKA CITY  PTCLDY    22  16  76 NE5       30.46F WCI  16
PLATTSMOUTH    PTCLDY    25  14  64 E6        30.46F WCI  18
$$

NEZ044-045-051>053-067-021100-
OMAHA AREA

CITY           SKY/WX    TMP DP  RH WIND       PRES   REMARKS
OMAHA EPPLEY   CLOUDY    23  16  74 CALM      30.48F
BLAIR          PTCLDY    24  15  69 E6        30.45S WCI  17
FREMONT        PTCLDY    20  15  79 CALM      30.46S
MILLARD        PTCLDY    24  18  78 CALM      30.48S
OFFUTT AFB     PTCLDY    20  16  84 NE1       30.47F
PLATTSMOUTH    PTCLDY    25  14  64 E6        30.46F WCI  18
WAHOO          FAIR      23  14  68 CALM      30.46F
$$



USA.gov is the U.S. government's official web portal to all federal, state and local government web resources and services.